Погода в Котабару

Индонезия     2°42′32″S   116°02′49″E
темп.,
°C
ветер,
м/с
пор.,
м/с
влажн.,
%
обл.,
%
осадки,
мм/ч
давл.,
гПа
погр.,
м
2 марта, вт
вт223:00+24сз119595 0.0 101124
02:00+23зсз119497 0.0 101024
05:00+23сз019580 0.0 100923
08:00+25ссз118679 0.0 1011133
11:00+32св225799 0.0 10111182
14:00+31сз226491 3.6 1008842
17:00+27св1491100 5.5 1007205
20:00+25ссв119597 6.8 100924
3 марта, ср
ср323:00+24зюз1297100 2.8 101165
02:00+23зюз1196100 2.8 100924
05:00+24зсз019593 0.1 100924
08:00+25з119497 2.4 101152
11:00+26с2590100 5.4 1012409
14:00+27з0188100 8.0 1009167
17:00+25юз1495100 3.1 1009154
20:00+23з1297100 3.9 101183
4 марта, чт
чт423:00+22сз0197100 0.2 101224
02:00+22зсз1197100 1.8 101026
05:00+22зсз1196100 2.2 101036
08:00+22сз1197100 4.6 101223
11:00+23с2596100 0.1 1012247
14:00+29св246499 0.1 1009762
17:00+26св138394 0.0 1008161
20:00+23с119097 0.1 101023
5 марта, пт
пт523:00+23зсз1191100 0.0 101123
02:00+22з1191100 0.0 101023
05:00+22сз1189100 0.0 101023
08:00+25ссз1282100 0.0 1012112
11:00+31ссв2355100 0.0 10121115
14:00+29ссз1383100 4.1 1009500
17:00+28ю008632 5.4 1008102
20:00+24зюз019466 6.6 101024
6 марта, сб
сб623:00+23зсз119699 0.4 101123
02:00+23сз1196100 0.8 100923
05:00+23сз1196100 0.0 100924
08:00+25с1689100 0.0 1011301
11:00+31ссв3555100 0.0 10111210
14:00+33св354784 0.0 10081669
17:00+31всв235798 0.3 1007908
20:00+25ссв128679 0.8 100945